Year,Month,Day,Hour,Minute,Value (Times are PST for temperature in C)
2016,08,18,00,00,21.80
2016,08,18,00,01,21.80
2016,08,18,00,02,21.80
2016,08,18,00,03,21.80
2016,08,18,00,04,21.80
2016,08,18,00,05,21.80
2016,08,18,00,06,21.90
2016,08,18,00,07,21.90
2016,08,18,00,08,21.90
2016,08,18,00,09,21.90
2016,08,18,00,10,21.90
2016,08,18,00,11,21.90
2016,08,18,00,12,21.80
2016,08,18,00,13,21.90
2016,08,18,00,14,21.90
2016,08,18,00,15,21.90
2016,08,18,00,16,21.90
2016,08,18,00,17,21.90
2016,08,18,00,18,21.90
2016,08,18,00,19,21.90
2016,08,18,00,20,21.90
2016,08,18,00,21,21.90
2016,08,18,00,22,21.80
2016,08,18,00,23,21.80
2016,08,18,00,24,21.80
2016,08,18,00,25,21.80
2016,08,18,00,26,21.70
2016,08,18,00,27,21.70
2016,08,18,00,28,21.70
2016,08,18,00,29,21.70
2016,08,18,00,30,21.70
2016,08,18,00,31,21.70
2016,08,18,00,32,21.60
2016,08,18,00,33,21.60
2016,08,18,00,34,21.60
2016,08,18,00,35,21.60
2016,08,18,00,36,21.50
2016,08,18,00,37,21.50
2016,08,18,00,38,21.50
2016,08,18,00,39,21.40
2016,08,18,00,40,21.40
2016,08,18,00,41,21.40
2016,08,18,00,42,21.40
2016,08,18,00,43,21.40
2016,08,18,00,44,21.40
2016,08,18,00,45,21.40
2016,08,18,00,46,21.40
2016,08,18,00,47,21.50
2016,08,18,00,48,21.50
2016,08,18,00,49,21.60
2016,08,18,00,50,21.60
2016,08,18,00,51,21.60
2016,08,18,00,52,21.60
2016,08,18,00,53,21.60
2016,08,18,00,54,21.60
2016,08,18,00,55,21.60
2016,08,18,00,56,21.60
2016,08,18,00,57,21.60
2016,08,18,00,58,21.60
2016,08,18,00,59,21.60
2016,08,18,01,00,21.60
2016,08,18,01,01,21.60
2016,08,18,01,02,21.60
2016,08,18,01,03,21.60
2016,08,18,01,04,21.60
2016,08,18,01,05,21.60
2016,08,18,01,06,21.60
2016,08,18,01,07,21.60
2016,08,18,01,08,21.50
2016,08,18,01,09,21.50
2016,08,18,01,10,21.50
2016,08,18,01,11,21.50
2016,08,18,01,12,21.50
2016,08,18,01,13,21.40
2016,08,18,01,14,21.40
2016,08,18,01,15,21.40
2016,08,18,01,16,21.30
2016,08,18,01,17,21.30
2016,08,18,01,18,21.30
2016,08,18,01,19,21.30
2016,08,18,01,20,21.30
2016,08,18,01,21,21.30
2016,08,18,01,22,21.30
2016,08,18,01,23,21.30
2016,08,18,01,24,21.30
2016,08,18,01,25,21.30
2016,08,18,01,26,21.30
2016,08,18,01,27,21.30
2016,08,18,01,28,21.30
2016,08,18,01,29,21.30
2016,08,18,01,30,21.30
2016,08,18,01,31,21.30
2016,08,18,01,32,21.30
2016,08,18,01,33,21.30
2016,08,18,01,34,21.30
2016,08,18,01,35,21.30
2016,08,18,01,36,21.20
2016,08,18,01,37,21.20
2016,08,18,01,38,21.20
2016,08,18,01,39,21.20
2016,08,18,01,40,21.20
2016,08,18,01,41,21.20
2016,08,18,01,42,21.10
2016,08,18,01,43,21.10
2016,08,18,01,44,21.10
2016,08,18,01,45,21.10
2016,08,18,01,46,21.10
2016,08,18,01,47,21.00
2016,08,18,01,48,21.00
2016,08,18,01,49,20.90
2016,08,18,01,50,20.90
2016,08,18,01,51,20.90
2016,08,18,01,52,20.90
2016,08,18,01,53,20.80
2016,08,18,01,54,20.80
2016,08,18,01,55,20.70
2016,08,18,01,56,20.70
2016,08,18,01,57,20.70
2016,08,18,01,58,20.70
2016,08,18,01,59,20.70
2016,08,18,02,00,20.70
2016,08,18,02,01,20.60
2016,08,18,02,02,20.60
2016,08,18,02,03,20.60
2016,08,18,02,04,20.60
2016,08,18,02,05,20.50
2016,08,18,02,06,20.50
2016,08,18,02,07,20.50
2016,08,18,02,08,20.50
2016,08,18,02,09,20.40
2016,08,18,02,10,20.40
2016,08,18,02,11,20.40
2016,08,18,02,12,20.30
2016,08,18,02,13,20.30
2016,08,18,02,14,20.20
2016,08,18,02,15,20.20
2016,08,18,02,16,20.20
2016,08,18,02,17,20.20
2016,08,18,02,18,20.10
2016,08,18,02,19,20.10
2016,08,18,02,20,20.10
2016,08,18,02,21,20.00
2016,08,18,02,22,20.00
2016,08,18,02,23,19.90
2016,08,18,02,24,19.90
2016,08,18,02,25,19.90
2016,08,18,02,26,19.90
2016,08,18,02,27,19.90
2016,08,18,02,28,19.80
2016,08,18,02,29,19.80
2016,08,18,02,30,19.80
2016,08,18,02,31,19.80
2016,08,18,02,32,19.80
2016,08,18,02,33,19.80
2016,08,18,02,34,19.80
2016,08,18,02,35,19.80
2016,08,18,02,36,19.80
2016,08,18,02,37,19.80
2016,08,18,02,38,19.80
2016,08,18,02,39,19.80
2016,08,18,02,40,19.80
2016,08,18,02,41,19.80
2016,08,18,02,42,19.80
2016,08,18,02,43,19.80
2016,08,18,02,44,19.80
2016,08,18,02,45,19.80
2016,08,18,02,46,19.70
2016,08,18,02,47,19.70
2016,08,18,02,48,19.70
2016,08,18,02,49,19.70
2016,08,18,02,50,19.70
2016,08,18,02,51,19.70
2016,08,18,02,52,19.70
2016,08,18,02,53,19.70
2016,08,18,02,54,19.70
2016,08,18,02,55,19.70
2016,08,18,02,56,19.70
2016,08,18,02,57,19.80
2016,08,18,02,58,19.80
2016,08,18,02,59,19.80
2016,08,18,03,00,19.80
2016,08,18,03,01,19.80
2016,08,18,03,02,19.80
2016,08,18,03,06,19.80
2016,08,18,03,07,19.80
2016,08,18,03,08,19.80
2016,08,18,03,09,19.80
2016,08,18,03,10,19.80
2016,08,18,03,11,19.80
2016,08,18,03,12,19.80
2016,08,18,03,13,19.80
2016,08,18,03,14,19.80
2016,08,18,03,15,19.80
2016,08,18,03,16,19.80
2016,08,18,03,17,19.80
2016,08,18,03,18,19.80
2016,08,18,03,19,19.80
2016,08,18,03,20,19.80
2016,08,18,03,21,19.70
2016,08,18,03,22,19.70
2016,08,18,03,23,19.60
2016,08,18,03,24,19.60
2016,08,18,03,25,19.50
2016,08,18,03,26,19.50
2016,08,18,03,27,19.40
2016,08,18,03,28,19.40
2016,08,18,03,29,19.30
2016,08,18,03,30,19.30
2016,08,18,03,31,19.30
2016,08,18,03,32,19.20
2016,08,18,03,33,19.20
2016,08,18,03,34,19.20
2016,08,18,03,35,19.10
2016,08,18,03,36,19.10
2016,08,18,03,37,19.00
2016,08,18,03,38,19.00
2016,08,18,03,39,19.00
2016,08,18,03,40,18.90
2016,08,18,03,41,18.90
2016,08,18,03,42,18.90
2016,08,18,03,43,18.90
2016,08,18,03,44,18.80
2016,08,18,03,45,18.80
2016,08,18,03,46,18.80
2016,08,18,03,47,18.80
2016,08,18,03,48,18.80
2016,08,18,03,49,18.70
2016,08,18,03,50,18.70
2016,08,18,03,51,18.70
2016,08,18,03,52,18.70
2016,08,18,03,53,18.60
2016,08,18,03,54,18.60
2016,08,18,03,55,18.60
2016,08,18,03,56,18.50
2016,08,18,03,57,18.50
2016,08,18,03,58,18.50
2016,08,18,03,59,18.40
2016,08,18,04,00,18.40
2016,08,18,04,01,18.40
2016,08,18,04,02,18.40
2016,08,18,04,03,18.40
2016,08,18,04,04,18.30
2016,08,18,04,05,18.30
2016,08,18,04,06,18.30
2016,08,18,04,07,18.30
2016,08,18,04,08,18.30
2016,08,18,04,09,18.30
2016,08,18,04,10,18.30
2016,08,18,04,11,18.30
2016,08,18,04,12,18.30
2016,08,18,04,13,18.30
2016,08,18,04,14,18.30
2016,08,18,04,15,18.20
2016,08,18,04,16,18.20
2016,08,18,04,17,18.20
2016,08,18,04,18,18.20
2016,08,18,04,19,18.20
2016,08,18,04,20,18.20
2016,08,18,04,21,18.20
2016,08,18,04,22,18.20
2016,08,18,04,23,18.20
2016,08,18,04,24,18.20
2016,08,18,04,25,18.10
2016,08,18,04,26,18.10
2016,08,18,04,27,18.10
2016,08,18,04,28,18.10
2016,08,18,04,29,18.10
2016,08,18,04,30,18.10
2016,08,18,04,31,18.10
2016,08,18,04,32,18.10
2016,08,18,04,33,18.10
2016,08,18,04,34,18.10
2016,08,18,04,35,18.10
2016,08,18,04,36,18.10
2016,08,18,04,37,18.10
2016,08,18,04,38,18.10
2016,08,18,04,39,18.10
2016,08,18,04,40,18.10
2016,08,18,04,41,18.10
2016,08,18,04,42,18.10
2016,08,18,04,43,18.10
2016,08,18,04,44,18.20
2016,08,18,04,45,18.20
2016,08,18,04,46,18.20
2016,08,18,04,47,18.20
2016,08,18,04,48,18.20
2016,08,18,04,49,18.20
2016,08,18,04,50,18.30
2016,08,18,04,51,18.30
2016,08,18,04,52,18.40
2016,08,18,04,53,18.40
2016,08,18,04,54,18.50
2016,08,18,04,55,18.60
2016,08,18,04,56,18.60
2016,08,18,04,57,18.70
2016,08,18,04,58,18.70
2016,08,18,04,59,18.80
2016,08,18,05,00,18.80
2016,08,18,05,01,18.90
2016,08,18,05,02,18.90
2016,08,18,05,03,18.90
2016,08,18,05,04,19.00
2016,08,18,05,05,19.00
2016,08,18,05,06,19.00
2016,08,18,05,07,19.00
2016,08,18,05,08,19.00
2016,08,18,05,09,19.00
2016,08,18,05,10,19.10
2016,08,18,05,11,19.10
2016,08,18,05,12,19.10
2016,08,18,05,13,19.10
2016,08,18,05,14,19.10
2016,08,18,05,15,19.00
2016,08,18,05,16,19.00
2016,08,18,05,17,19.00
2016,08,18,05,18,19.00
2016,08,18,05,19,19.00
2016,08,18,05,20,19.00
2016,08,18,05,21,19.00
2016,08,18,05,22,19.00
2016,08,18,05,23,19.00
2016,08,18,05,24,19.10
2016,08,18,05,25,19.10
2016,08,18,05,26,19.10
2016,08,18,05,27,19.10
2016,08,18,05,28,19.10
2016,08,18,05,29,19.10
2016,08,18,05,30,19.10
2016,08,18,05,31,19.10
2016,08,18,05,32,19.10
2016,08,18,05,33,19.10
2016,08,18,05,34,19.10
2016,08,18,05,35,19.10
2016,08,18,05,36,19.10
2016,08,18,05,37,19.10
2016,08,18,05,38,19.00
2016,08,18,05,39,19.00
2016,08,18,05,40,19.00
2016,08,18,05,41,19.00
2016,08,18,05,42,19.00
2016,08,18,05,43,19.00
2016,08,18,05,44,19.10
2016,08,18,05,45,19.10
2016,08,18,05,46,19.10
2016,08,18,05,47,19.10
2016,08,18,05,48,19.10
2016,08,18,05,49,19.10
2016,08,18,05,50,19.10
2016,08,18,05,51,19.10
2016,08,18,05,52,19.10
2016,08,18,05,53,19.00
2016,08,18,05,54,19.00
2016,08,18,05,55,19.00
2016,08,18,05,56,18.90
2016,08,18,05,57,18.90
2016,08,18,05,58,18.90
2016,08,18,05,59,18.90
2016,08,18,06,00,18.90
2016,08,18,06,01,18.90
2016,08,18,06,02,18.90
2016,08,18,06,03,18.90
2016,08,18,06,04,19.00
2016,08,18,06,05,19.00
2016,08,18,06,06,19.00
2016,08,18,06,07,19.00
2016,08,18,06,08,19.00
2016,08,18,06,09,19.00
2016,08,18,06,10,19.00
2016,08,18,06,11,18.90
2016,08,18,06,12,18.90
2016,08,18,06,13,18.90
2016,08,18,06,14,18.90
2016,08,18,06,15,18.90
2016,08,18,06,16,18.90
2016,08,18,06,17,18.90
2016,08,18,06,18,18.90
2016,08,18,06,19,18.90
2016,08,18,06,20,18.90
2016,08,18,06,21,18.90
2016,08,18,06,22,18.90
2016,08,18,06,23,18.90
2016,08,18,06,24,18.90
2016,08,18,06,25,18.80
2016,08,18,06,26,18.80
2016,08,18,06,27,18.80
2016,08,18,06,28,18.80
2016,08,18,06,29,18.80
2016,08,18,06,30,18.70
2016,08,18,06,31,18.70
2016,08,18,06,32,18.70
2016,08,18,06,33,18.60
2016,08,18,06,34,18.60
2016,08,18,06,35,18.50
2016,08,18,06,36,18.50
2016,08,18,06,37,18.40
2016,08,18,06,38,18.40
2016,08,18,06,39,18.40
2016,08,18,06,40,18.40
2016,08,18,06,41,18.40
2016,08,18,06,42,18.40
2016,08,18,06,43,18.40
2016,08,18,06,44,18.40
2016,08,18,06,45,18.40
2016,08,18,06,46,18.50
2016,08,18,06,47,18.50
2016,08,18,06,48,18.60
2016,08,18,06,49,18.60
2016,08,18,06,50,18.60
2016,08,18,06,51,18.60
2016,08,18,06,52,18.60
2016,08,18,06,53,18.70
2016,08,18,06,54,18.60
2016,08,18,06,55,18.60
2016,08,18,06,56,18.60
2016,08,18,06,57,18.60
2016,08,18,06,58,18.60
2016,08,18,06,59,18.60
2016,08,18,07,00,18.60
2016,08,18,07,01,18.60
2016,08,18,07,02,18.60
2016,08,18,07,03,18.70
2016,08,18,07,04,18.70
2016,08,18,07,05,18.70
2016,08,18,07,06,18.70
2016,08,18,07,07,18.70
2016,08,18,07,08,18.70
2016,08,18,07,09,18.80
2016,08,18,07,10,18.80
2016,08,18,07,11,18.80
2016,08,18,07,12,18.70
2016,08,18,07,13,18.70
2016,08,18,07,14,18.70
2016,08,18,07,15,18.70
2016,08,18,07,16,18.70
2016,08,18,07,17,18.70
2016,08,18,07,18,18.70
2016,08,18,07,19,18.80
2016,08,18,07,20,18.80
2016,08,18,07,21,18.80
2016,08,18,07,22,18.80
2016,08,18,07,23,18.80
2016,08,18,07,24,18.80
2016,08,18,07,25,18.90
2016,08,18,07,26,18.90
2016,08,18,07,27,19.00
2016,08,18,07,28,19.10
2016,08,18,07,29,19.10
2016,08,18,07,30,19.10
2016,08,18,07,31,19.20
2016,08,18,07,32,19.20
2016,08,18,07,33,19.20
2016,08,18,07,34,19.30
2016,08,18,07,35,19.30
2016,08,18,07,36,19.30
2016,08,18,07,37,19.30
2016,08,18,07,38,19.40
2016,08,18,07,39,19.40
2016,08,18,07,40,19.40
2016,08,18,07,41,19.40
2016,08,18,07,42,19.50
2016,08,18,07,43,19.50
2016,08,18,07,44,19.50
2016,08,18,07,45,19.60
2016,08,18,07,46,19.60
2016,08,18,07,47,19.60
2016,08,18,07,48,19.70
2016,08,18,07,49,19.70
2016,08,18,07,50,19.70
2016,08,18,07,51,19.70
2016,08,18,07,52,19.70
2016,08,18,07,53,19.70
2016,08,18,07,54,19.80
2016,08,18,07,55,19.80
2016,08,18,07,56,19.90
2016,08,18,07,57,19.90
2016,08,18,07,58,19.90
2016,08,18,07,59,20.00
2016,08,18,08,00,20.00
2016,08,18,08,01,20.10
2016,08,18,08,02,20.10
2016,08,18,08,03,20.10
2016,08,18,08,04,20.10
2016,08,18,08,05,20.20
2016,08,18,08,06,20.20
2016,08,18,08,07,20.20
2016,08,18,08,08,20.20
2016,08,18,08,09,20.30
2016,08,18,08,10,20.30
2016,08,18,08,11,20.30
2016,08,18,08,12,20.40
2016,08,18,08,13,20.40
2016,08,18,08,14,20.40
2016,08,18,08,15,20.50
2016,08,18,08,16,20.50
2016,08,18,08,17,20.60
2016,08,18,08,18,20.60
2016,08,18,08,19,20.60
2016,08,18,08,20,20.70
2016,08,18,08,21,20.70
2016,08,18,08,22,20.70
2016,08,18,08,23,20.70
2016,08,18,08,24,20.80
2016,08,18,08,25,20.80
2016,08,18,08,26,20.90
2016,08,18,08,27,21.00
2016,08,18,08,28,21.10
2016,08,18,08,29,21.20
2016,08,18,08,30,21.20
2016,08,18,08,31,21.30
2016,08,18,08,32,21.40
2016,08,18,08,33,21.50
2016,08,18,08,34,21.60
2016,08,18,08,35,21.70
2016,08,18,08,36,21.80
2016,08,18,08,37,21.80
2016,08,18,08,38,21.90
2016,08,18,08,39,22.00
2016,08,18,08,40,22.10
2016,08,18,08,41,22.20
2016,08,18,08,42,22.30
2016,08,18,08,43,22.70
2016,08,18,08,44,23.00
2016,08,18,08,45,23.20
2016,08,18,08,46,23.20
2016,08,18,08,47,23.20
2016,08,18,08,48,23.20
2016,08,18,08,49,23.20
2016,08,18,08,50,23.10
2016,08,18,08,51,23.10
2016,08,18,08,52,23.30
2016,08,18,08,53,23.80
2016,08,18,08,54,24.10
2016,08,18,08,55,24.20
2016,08,18,08,56,24.30
2016,08,18,08,57,24.30
2016,08,18,08,58,24.20
2016,08,18,08,59,24.20
2016,08,18,09,00,24.10
2016,08,18,09,01,24.00
2016,08,18,09,02,24.00
2016,08,18,09,03,23.90
2016,08,18,09,04,23.90
2016,08,18,09,05,23.80
2016,08,18,09,06,23.90
2016,08,18,09,07,23.90
2016,08,18,09,08,24.00
2016,08,18,09,09,24.00
2016,08,18,09,10,24.10
2016,08,18,09,11,24.20
2016,08,18,09,12,24.20
2016,08,18,09,13,24.20
2016,08,18,09,14,24.30
2016,08,18,09,15,24.50
2016,08,18,09,16,24.80
2016,08,18,09,17,25.00
2016,08,18,09,18,25.40
2016,08,18,09,19,25.60
2016,08,18,09,20,25.70
2016,08,18,09,21,25.70
2016,08,18,09,22,25.70
2016,08,18,09,23,25.70
2016,08,18,09,24,25.70
2016,08,18,09,25,25.60
2016,08,18,09,26,25.60
2016,08,18,09,27,25.50
2016,08,18,09,28,25.50
2016,08,18,09,29,25.50
2016,08,18,09,30,25.40
2016,08,18,09,31,25.50
2016,08,18,09,32,25.50
2016,08,18,09,33,25.50
2016,08,18,09,34,25.60
2016,08,18,09,35,25.60
2016,08,18,09,36,25.60
2016,08,18,09,37,25.70
2016,08,18,09,38,25.70
2016,08,18,09,39,25.70
2016,08,18,09,40,25.70
2016,08,18,09,41,25.80
2016,08,18,09,42,25.90
2016,08,18,09,43,25.90
2016,08,18,09,44,26.00
2016,08,18,09,45,26.10
2016,08,18,09,46,26.10
2016,08,18,09,47,26.10
2016,08,18,09,48,26.10
2016,08,18,09,49,26.20
2016,08,18,09,50,26.20
2016,08,18,09,51,26.20
2016,08,18,09,52,26.10
2016,08,18,09,53,26.10
2016,08,18,09,54,26.10
2016,08,18,09,55,26.10
2016,08,18,09,56,26.10
2016,08,18,09,57,26.10
2016,08,18,09,58,26.20
2016,08,18,09,59,26.20
2016,08,18,10,00,26.30
2016,08,18,10,01,26.40
2016,08,18,10,02,26.90
2016,08,18,10,03,27.60
2016,08,18,10,04,27.80
2016,08,18,10,05,28.00
2016,08,18,10,06,28.20
2016,08,18,10,07,28.20
2016,08,18,10,08,28.30
2016,08,18,10,09,28.30
2016,08,18,10,10,28.30
2016,08,18,10,11,28.20
2016,08,18,10,12,28.10
2016,08,18,10,13,28.00
2016,08,18,10,14,27.90
2016,08,18,10,15,27.80
2016,08,18,10,16,27.70
2016,08,18,10,17,27.70
2016,08,18,10,18,27.60
2016,08,18,10,19,27.50
2016,08,18,10,20,27.50
2016,08,18,10,21,27.50
2016,08,18,10,22,27.40
2016,08,18,10,23,27.40
2016,08,18,10,24,27.40
2016,08,18,10,25,27.50
2016,08,18,10,26,27.50
2016,08,18,10,27,27.60
2016,08,18,10,28,27.60
2016,08,18,10,29,27.60
2016,08,18,10,30,27.60
2016,08,18,10,31,27.60
2016,08,18,10,32,27.60
2016,08,18,10,33,27.60
2016,08,18,10,34,27.70
2016,08,18,10,35,27.80
2016,08,18,10,36,27.90
2016,08,18,10,37,27.90
2016,08,18,10,38,27.90
2016,08,18,10,39,27.90
2016,08,18,10,40,27.80
2016,08,18,10,41,27.80
2016,08,18,10,42,27.80
2016,08,18,10,43,27.80
2016,08,18,10,44,28.00
2016,08,18,10,45,28.10
2016,08,18,10,46,28.20
2016,08,18,10,47,28.10
2016,08,18,10,48,28.00
2016,08,18,10,49,27.90
2016,08,18,10,50,27.90
2016,08,18,10,51,27.80
2016,08,18,10,52,27.80
2016,08,18,10,53,27.70
2016,08,18,10,54,27.60
2016,08,18,10,55,27.50
2016,08,18,10,56,27.50
2016,08,18,10,57,27.70
2016,08,18,10,58,27.90
2016,08,18,10,59,27.90
2016,08,18,11,00,28.00
2016,08,18,11,01,27.90
2016,08,18,11,02,27.90
2016,08,18,11,03,27.90
2016,08,18,11,04,28.00
2016,08,18,11,05,28.00
2016,08,18,11,06,28.10
2016,08,18,11,07,28.00
2016,08,18,11,08,27.90
2016,08,18,11,09,28.00
2016,08,18,11,10,28.00
2016,08,18,11,11,28.00
2016,08,18,11,12,28.00
2016,08,18,11,13,28.00
2016,08,18,11,14,27.90
2016,08,18,11,15,27.90
2016,08,18,11,16,27.90
2016,08,18,11,17,27.90
2016,08,18,11,18,28.00
2016,08,18,11,19,28.00
2016,08,18,11,20,28.00
2016,08,18,11,21,28.00
2016,08,18,11,22,28.10
2016,08,18,11,23,28.10
2016,08,18,11,24,28.00
2016,08,18,11,25,28.00
2016,08,18,11,26,27.90
2016,08,18,11,27,27.80
2016,08,18,11,28,27.80
2016,08,18,11,29,27.80
2016,08,18,11,30,27.70
2016,08,18,11,31,27.70
2016,08,18,11,32,27.70
2016,08,18,11,33,27.80
2016,08,18,11,34,27.90
2016,08,18,11,35,27.90
2016,08,18,11,36,27.90
2016,08,18,11,37,27.90
2016,08,18,11,38,27.90
2016,08,18,11,39,27.90
2016,08,18,11,40,27.90
2016,08,18,11,41,27.90
2016,08,18,11,42,27.90
2016,08,18,11,43,27.80
2016,08,18,11,44,27.90
2016,08,18,11,45,28.00
2016,08,18,11,46,28.10
2016,08,18,11,47,28.20
2016,08,18,11,48,28.20
2016,08,18,11,49,28.30
2016,08,18,11,50,28.40
2016,08,18,11,51,28.40
2016,08,18,11,52,28.40
2016,08,18,11,53,28.30
2016,08,18,11,54,28.30
2016,08,18,11,55,28.30
2016,08,18,11,56,28.30
2016,08,18,11,57,28.30
2016,08,18,11,58,28.20
2016,08,18,11,59,28.00
2016,08,18,12,00,27.90
2016,08,18,12,01,27.80
2016,08,18,12,02,27.80
2016,08,18,12,03,27.80
2016,08,18,12,04,27.70
2016,08,18,12,05,27.70
2016,08,18,12,06,27.60
2016,08,18,12,07,27.60
2016,08,18,12,08,27.70
2016,08,18,12,09,27.80
2016,08,18,12,10,27.80
2016,08,18,12,11,27.90
2016,08,18,12,12,28.00
2016,08,18,12,13,28.10
2016,08,18,12,14,28.20
2016,08,18,12,15,28.30
2016,08,18,12,16,28.30
2016,08,18,12,17,28.40
2016,08,18,12,18,28.40
2016,08,18,12,19,28.40
2016,08,18,12,20,28.50
2016,08,18,12,21,28.50
2016,08,18,12,22,28.60
2016,08,18,12,23,28.60
2016,08,18,12,24,28.50
2016,08,18,12,25,28.50
2016,08,18,12,26,28.50
2016,08,18,12,27,28.50
2016,08,18,12,28,28.40
2016,08,18,12,29,28.40
2016,08,18,12,30,28.30
2016,08,18,12,31,28.40
2016,08,18,12,32,28.40
2016,08,18,12,33,28.50
2016,08,18,12,34,28.50
2016,08,18,12,35,28.60
2016,08,18,12,36,28.70
2016,08,18,12,37,28.80
2016,08,18,12,38,28.80
2016,08,18,12,39,28.90
2016,08,18,12,40,28.90
2016,08,18,12,41,29.00
2016,08,18,12,42,29.00
2016,08,18,12,43,29.10
2016,08,18,12,44,29.10
2016,08,18,12,45,29.20
2016,08,18,12,46,29.20
2016,08,18,12,47,29.20
2016,08,18,12,48,29.30
2016,08,18,12,49,29.30
2016,08,18,12,50,29.30
2016,08,18,12,51,29.40
2016,08,18,12,52,29.50
2016,08,18,12,53,29.50
2016,08,18,12,54,29.50
2016,08,18,12,55,29.50
2016,08,18,12,56,29.60
2016,08,18,12,57,29.60
2016,08,18,12,58,29.70
2016,08,18,12,59,29.80
2016,08,18,13,00,29.90
2016,08,18,13,01,29.90
2016,08,18,13,02,29.90
2016,08,18,13,03,29.80
2016,08,18,13,04,29.80
2016,08,18,13,05,29.80
2016,08,18,13,06,29.80
2016,08,18,13,07,29.80
2016,08,18,13,08,29.80
2016,08,18,13,09,29.80
2016,08,18,13,10,29.90
2016,08,18,13,11,29.80
2016,08,18,13,12,29.80
2016,08,18,13,13,29.80
2016,08,18,13,14,29.80
2016,08,18,13,15,29.70
2016,08,18,13,16,29.70
2016,08,18,13,17,29.80
2016,08,18,13,18,29.80
2016,08,18,13,19,29.90
2016,08,18,13,20,30.00
2016,08,18,13,21,30.00
2016,08,18,13,22,30.00
2016,08,18,13,23,30.10
2016,08,18,13,24,30.10
2016,08,18,13,25,30.10
2016,08,18,13,26,30.10
2016,08,18,13,27,30.30
2016,08,18,13,28,30.30
2016,08,18,13,29,30.30
2016,08,18,13,30,30.30
2016,08,18,13,31,30.20
2016,08,18,13,32,30.20
2016,08,18,13,33,30.20
2016,08,18,13,34,30.10
2016,08,18,13,35,30.10
2016,08,18,13,36,30.00
2016,08,18,13,37,29.90
2016,08,18,13,38,29.80
2016,08,18,13,39,29.80
2016,08,18,13,40,29.70
2016,08,18,13,41,29.70
2016,08,18,13,42,29.70
2016,08,18,13,43,29.80
2016,08,18,13,44,29.70
2016,08,18,13,45,29.80
2016,08,18,13,46,29.90
2016,08,18,13,47,30.00
2016,08,18,13,48,30.00
2016,08,18,13,49,30.10
2016,08,18,13,50,30.10
2016,08,18,13,51,30.30
2016,08,18,13,52,30.40
2016,08,18,13,53,30.50
2016,08,18,13,54,30.60
2016,08,18,13,55,30.60
2016,08,18,13,56,30.60
2016,08,18,13,57,30.60
2016,08,18,13,58,30.60
2016,08,18,13,59,30.60
2016,08,18,14,00,30.60
2016,08,18,14,01,30.60
2016,08,18,14,02,30.70
2016,08,18,14,03,30.60
2016,08,18,14,04,30.70
2016,08,18,14,05,30.70
2016,08,18,14,06,30.70
2016,08,18,14,07,30.70
2016,08,18,14,08,30.80
2016,08,18,14,09,30.80
2016,08,18,14,10,30.80
2016,08,18,14,11,30.90
2016,08,18,14,12,30.90
2016,08,18,14,13,30.90
2016,08,18,14,14,30.90
2016,08,18,14,15,30.80
2016,08,18,14,16,30.70
2016,08,18,14,17,30.70
2016,08,18,14,18,30.80
2016,08,18,14,19,30.90
2016,08,18,14,20,30.90
2016,08,18,14,21,30.90
2016,08,18,14,22,30.90
2016,08,18,14,23,30.90
2016,08,18,14,24,30.80
2016,08,18,14,25,30.80
2016,08,18,14,26,30.80
2016,08,18,14,27,30.80
2016,08,18,14,28,30.90
2016,08,18,14,29,31.00
2016,08,18,14,30,31.00
2016,08,18,14,31,31.10
2016,08,18,14,32,31.20
2016,08,18,14,33,31.20
2016,08,18,14,34,31.20
2016,08,18,14,35,31.20
2016,08,18,14,36,31.10
2016,08,18,14,37,31.10
2016,08,18,14,38,31.10
2016,08,18,14,39,31.10
2016,08,18,14,40,31.00
2016,08,18,14,41,31.00
2016,08,18,14,42,31.00
2016,08,18,14,43,31.00
2016,08,18,14,44,31.00
2016,08,18,14,45,31.10
2016,08,18,14,46,31.10
2016,08,18,14,47,31.20
2016,08,18,14,48,31.30
2016,08,18,14,49,31.30
2016,08,18,14,50,31.30
2016,08,18,14,51,31.30
2016,08,18,14,52,31.30
2016,08,18,14,53,31.30
2016,08,18,14,54,31.30
2016,08,18,14,55,31.30
2016,08,18,14,56,31.30
2016,08,18,14,57,31.20
2016,08,18,14,58,31.10
2016,08,18,14,59,31.10
2016,08,18,15,00,31.10
2016,08,18,15,01,31.10
2016,08,18,15,02,31.10
2016,08,18,15,03,31.10
2016,08,18,15,04,31.10
2016,08,18,15,05,31.10
2016,08,18,15,06,31.10
2016,08,18,15,07,31.10
2016,08,18,15,08,31.20
2016,08,18,15,09,31.30
2016,08,18,15,10,31.30
2016,08,18,15,11,31.30
2016,08,18,15,12,31.30
2016,08,18,15,13,31.30
2016,08,18,15,14,31.30
2016,08,18,15,15,31.40
2016,08,18,15,16,31.40
2016,08,18,15,17,31.40
2016,08,18,15,18,31.40
2016,08,18,15,19,31.40
2016,08,18,15,20,31.50
2016,08,18,15,21,31.50
2016,08,18,15,22,31.50
2016,08,18,15,23,31.40
2016,08,18,15,24,31.40
2016,08,18,15,25,31.40
2016,08,18,15,26,31.40
2016,08,18,15,27,31.40
2016,08,18,15,28,31.50
2016,08,18,15,29,31.50
2016,08,18,15,30,31.60
2016,08,18,15,31,31.60
2016,08,18,15,32,31.70
2016,08,18,15,33,31.80
2016,08,18,15,34,31.80
2016,08,18,15,35,31.80
2016,08,18,15,36,31.90
2016,08,18,15,37,31.90
2016,08,18,15,38,31.80
2016,08,18,15,39,31.80
2016,08,18,15,40,31.80
2016,08,18,15,41,31.90
2016,08,18,15,42,31.90
2016,08,18,15,43,31.90
2016,08,18,15,44,32.00
2016,08,18,15,45,31.90
2016,08,18,15,46,31.90
2016,08,18,15,47,31.90
2016,08,18,15,48,31.90
2016,08,18,15,49,32.00
2016,08,18,15,50,32.10
2016,08,18,15,51,32.10
2016,08,18,15,52,32.10
2016,08,18,15,53,31.90
2016,08,18,15,54,31.90
2016,08,18,15,55,31.80
2016,08,18,15,56,31.80
2016,08,18,15,57,31.70
2016,08,18,15,58,31.70
2016,08,18,15,59,31.70
2016,08,18,16,00,31.60
2016,08,18,16,01,31.50
2016,08,18,16,02,31.50
2016,08,18,16,03,31.40
2016,08,18,16,04,31.50
2016,08,18,16,05,31.50
2016,08,18,16,06,31.60
2016,08,18,16,07,31.50
2016,08,18,16,08,31.50
2016,08,18,16,09,31.40
2016,08,18,16,10,31.50
2016,08,18,16,11,31.50
2016,08,18,16,12,31.40
2016,08,18,16,13,31.30
2016,08,18,16,14,31.30
2016,08,18,16,15,31.30
2016,08,18,16,16,31.30
2016,08,18,16,17,31.20
2016,08,18,16,18,31.20
2016,08,18,16,19,31.10
2016,08,18,16,20,31.10
2016,08,18,16,21,31.20
2016,08,18,16,22,31.20
2016,08,18,16,23,31.20
2016,08,18,16,24,31.20
2016,08,18,16,25,31.30
2016,08,18,16,26,31.30
2016,08,18,16,27,31.30
2016,08,18,16,28,31.30
2016,08,18,16,29,31.30
2016,08,18,16,30,31.30
2016,08,18,16,31,31.30
2016,08,18,16,32,31.30
2016,08,18,16,33,31.30
2016,08,18,16,34,31.30
2016,08,18,16,35,31.30
2016,08,18,16,36,31.30
2016,08,18,16,37,31.30
2016,08,18,16,38,31.40
2016,08,18,16,39,31.40
2016,08,18,16,40,31.40
2016,08,18,16,41,31.40
2016,08,18,16,42,31.40
2016,08,18,16,43,31.50
2016,08,18,16,44,31.50
2016,08,18,16,45,31.40
2016,08,18,16,46,31.40
2016,08,18,16,47,31.50
2016,08,18,16,48,31.50
2016,08,18,16,49,31.50
2016,08,18,16,50,31.50
2016,08,18,16,51,31.50
2016,08,18,16,52,31.50
2016,08,18,16,53,31.60
2016,08,18,16,54,31.60
2016,08,18,16,55,31.60
2016,08,18,16,56,31.50
2016,08,18,16,57,31.40
2016,08,18,16,58,31.40
2016,08,18,16,59,31.30
2016,08,18,17,00,31.30
2016,08,18,17,01,31.30
2016,08,18,17,02,31.30
2016,08,18,17,03,31.30
2016,08,18,17,04,31.30
2016,08,18,17,05,31.30
2016,08,18,17,06,31.30
2016,08,18,17,07,31.40
2016,08,18,17,08,31.50
2016,08,18,17,09,31.60
2016,08,18,17,10,31.60
2016,08,18,17,11,31.60
2016,08,18,17,12,31.50
2016,08,18,17,13,31.40
2016,08,18,17,14,31.40
2016,08,18,17,15,31.20
2016,08,18,17,16,31.20
2016,08,18,17,17,31.10
2016,08,18,17,18,31.00
2016,08,18,17,19,31.00
2016,08,18,17,20,30.90
2016,08,18,17,21,30.90
2016,08,18,17,22,30.90